Location: Br�znic
(45.9167°N, 22.6500°E)
Time: 15:15:58
(UTC+00:00)

Cosmos 2360 Rocket - Pass Details

Date: 03 March 2021
Orbit: 832 x 846 km, 71.0° (Epoch: 16 April)

Event Time Altitude Azimuth Distance (km) Brightness Sun altitude
Rises 18:38:15 0° 228° (SW) 3,379 5.7 -24.8°
Reaches altitude 10° 18:40:50 10° 236° (SW) 2,451 5.1 -25.2°
Maximum altitude 18:46:06 40° 305° (NW) 1,225 3.4 -26.1°
Drops below altitude 10° 18:51:25 10° 15° (NNE) 2,473 4.7 -27.0°
Sets 18:54:03 0° 22° (NNE) 3,413 5.3 -27.4°
